sat.trackr.live / text

‹ back to catalog

FFLY01

NORAD 65320 · 2025-188F

PAYLOAD ACTIVE UNKNOWN

§ Identity

Operator
Country
IND
Launch date
2025-08-26
Launch site
AFWTR
Launch vehicle
Mass (kg)
RCS (m²)

External: N2YO · Heavens-Above · Gunter

§ Orbital elements

Epoch: 2026-05-25T04:15:07.614144Z

Period
96.48 min
Inclination
97.7380°
Eccentricity
0.0008274
Mean motion
14.92566928 rev/d
Perigee alt
584.2 km
Apogee alt
595.7 km
Semi-major
6,968.1 km
B*
1.1074e-4
RAAN
220.8045°
Arg perigee
247.8983°
Mean anomaly
112.1358°
Rev number
4,047

§ Raw data

FFLY011 65320U 25188F   26145.17717146  .00001083  00000+0  11074-3 0  99992 65320  97.7380 220.8045 0008274 247.8983 112.1358 14.92566928 40473

JSON: /api/v1/satellites/65320 · /tle

For live sub-satellite position, see the globe view (requires WebGL).

§ Visibility from observer

Set your observer location to see the next 7 days of passes ≥ 10°. The values pass through the URL so the page stays shareable.

No JS? Fill the form by hand. The geolocation button needs JavaScript.

§ Radio — SatNOGS DB

ModeDescriptionDownlinkUplink
FM S-band telemetry 2.243 GHz

1 transmitter · refreshed weekly from db.satnogs.org